DW1590 Weather Reports


Display with metric or nautical units.
time (UTC)temp
F
wind
direction
speed
MPH
gust
MPH
rain 1hr
in
rain 24hr
in
rain mn
in
humidity
%
barometer
mb
20260505234627 79 109 6.0 0.0 0.00 0.00 0.00 35 1008.2
20260505233057 79 137 5.0 0.0 0.00 0.00 0.00 35 1008.1
20260505231556 79 261 5.0 0.0 0.00 0.00 0.00 34 1008.1
20260505230054 80 221 6.0 0.0 0.00 0.00 0.00 33 1008.0
20260505224554 80 207 7.0 0.0 0.00 0.00 0.00 33 1008.0
20260505223053 81 221 9.0 0.0 0.00 0.00 0.00 32 1008.0
20260505221553 81 227 6.0 0.0 0.00 0.00 0.00 33 1008.0
20260505214601 81 229 8.0 0.0 0.00 0.00 0.00 33 1007.9
20260505213100 81 207 9.0 0.0 0.00 0.00 0.00 33 1008.0
20260505211559 82 137 7.0 0.0 0.00 0.00 0.00 33 1007.8
20260505210050 82 173 7.0 0.0 0.00 0.00 0.00 35 1007.8
20260505204550 83 167 8.0 0.0 0.00 0.00 0.00 34 1007.9
20260505203050 83 236 8.0 0.0 0.00 0.00 0.00 35 1007.8
20260505201548 83 121 9.0 0.0 0.00 0.00 0.00 35 1007.6
20260505200046 83 192 9.0 0.0 0.00 0.00 0.00 36 1007.8
20260505194547 82 138 9.0 0.0 0.00 0.00 0.00 36 1008.2
20260505193048 83 88 8.0 0.0 0.00 0.00 0.00 36 1008.2
20260505191553 82 136 8.0 0.0 0.00 0.00 0.00 35 1008.5
20260505190040 82 165 6.0 0.0 0.00 0.00 0.00 38 1008.7
20260505184536 82 137 8.0 0.0 0.00 0.00 0.00 40 1008.8
20260505183034 82 218 6.0 0.0 0.00 0.00 0.00 40 1009.1
20260505181531 81 155 6.0 0.0 0.00 0.00 0.00 41 1009.2
20260505180043 81 167 7.0 0.0 0.00 0.00 0.00 41 1009.8
20260505174537 80 132 6.0 0.0 0.00 0.00 0.00 42 1009.7
20260505173025 80 132 6.0 0.0 0.00 0.00 0.00 41 1009.9
20260505171530 80 163 4.0 0.0 0.00 0.00 0.00 42 1009.9
20260505170026 79 206 5.0 0.0 0.00 0.00 0.00 40 1010.1
20260505164519 79 184 6.0 0.0 0.00 0.00 0.00 44 1010.4
20260505163017 78 150 4.0 0.0 0.00 0.00 0.00 47 1010.7
20260505161513 77 106 5.0 0.0 0.00 0.00 0.00 48 1010.9
20260505153005 75 184 4.0 0.0 0.00 0.00 0.00 52 1011.1
20260505151502 74 168 4.0 0.0 0.00 0.00 0.00 53 1011.2
20260505124532 65 216 5.0 0.0 0.00 0.00 0.00 61 1011.5
20260505123051 64 178 6.0 0.0 0.00 0.00 0.00 61 1011.5
20260505121530 63 187 3.0 0.0 0.00 0.00 0.00 62 1011.5
20260505120031 62 227 4.0 0.0 0.00 0.00 0.00 62 1011.4
20260505114528 61 193 3.0 0.0 0.00 0.00 0.00 61 1011.4
20260505113034 61 218 3.0 0.0 0.00 0.00 0.00 61 1011.2
20260505111539 60 207 3.0 0.0 0.00 0.00 0.00 61 1011.1
20260505101516 60 200 3.0 0.0 0.00 0.00 0.00 61 1010.5
20260505100015 60 179 2.0 0.0 0.00 0.00 0.00 62 1010.4
20260505094511 60 232 3.0 0.0 0.00 0.00 0.00 62 1010.3
20260505093011 60 188 3.0 0.0 0.00 0.00 0.00 62 1010.2
20260505091510 60 219 3.0 0.0 0.00 0.00 0.00 62 1010.2
20260505090010 61 234 4.0 0.0 0.00 0.00 0.00 63 1010.3
20260505084515 61 204 3.0 0.0 0.00 0.00 0.00 63 1010.3
20260505083013 61 200 3.0 0.0 0.00 0.00 0.00 63 1010.2
20260505081506 61 171 2.0 0.0 0.00 0.00 0.00 63 1010.3
20260505080012 61 200 3.0 0.0 0.00 0.00 0.00 62 1010.2
20260505074504 61 191 3.0 0.0 0.00 0.00 0.00 62 1010.1
20260505073003 61 182 3.0 0.0 0.00 0.00 0.00 62 1010.0
20260505071502 61 174 2.0 0.0 0.00 0.00 0.00 63 1010.1
20260505070002 61 205 2.0 0.0 0.00 0.00 0.00 63 1010.0
20260505064500 61 179 3.0 0.0 0.00 0.00 0.00 63 1009.9
20260505063100 62 207 2.0 0.0 0.00 0.00 0.00 63 1010.0
20260505061600 62 198 1.0 0.0 0.00 0.00 0.00 63 1010.0
20260505054602 62 209 1.0 0.0 0.00 0.00 0.00 62 1010.1
20260505053109 63 217 3.0 0.0 0.00 0.00 0.00 61 1010.2
20260505051553 63 202 2.0 0.0 0.00 0.00 0.00 61 1010.2
20260505041609 64 175 2.0 0.0 0.00 0.00 0.00 60 1010.0
20260505040047 64 193 2.0 0.0 0.00 0.00 0.00 59 1010.1
20260505034545 65 195 2.0 0.0 0.00 0.00 0.00 58 1010.0
20260505033039 66 196 3.0 0.0 0.00 0.00 0.00 57 1010.0
20260505031534 65 196 2.0 0.0 0.00 0.00 0.00 57 1009.9
20260505030030 65 187 2.0 0.0 0.00 0.00 0.00 56 1009.8
20260505024538 66 188 2.0 0.0 0.00 0.00 0.00 56 1009.9
20260505023021 66 199 2.0 0.0 0.00 0.00 0.00 55 1010.0
20260505021518 66 187 1.0 0.0 0.00 0.00 0.00 54 1009.8
20260505020014 66 193 1.0 0.0 0.00 0.00 0.00 54 1009.8
20260505014508 66 186 1.0 0.0 0.00 0.00 0.00 53 1009.7
20260505013013 67 165 1.0 0.0 0.00 0.00 0.00 52 1009.2
20260505011600 67 203 1.0 0.0 0.00 0.00 0.00 52 1009.3
20260505010055 68 187 0.0 0.0 0.00 0.00 0.00 51 1009.2
20260505004551 69 184 1.0 0.0 0.00 0.00 0.00 49 1009.2
20260505003046 70 196 0.0 0.0 0.00 0.00 0.00 47 1009.0
20260505001550 71 187 2.0 0.0 0.00 0.00 0.00 45 1009.1
20260505000042 71 202 2.0 0.0 0.00 0.00 0.00 45 1008.9